Location: Le Moustier
(44.1000°N, 6.5167°E)
Time: 14:13:15
(UTC+00:00)

Cosmos 2322 Rocket - Pass Details

Date: 13 December 2025
Orbit: 831 x 850 km, 71.0° (Epoch: 19 January)

Event Time Altitude Azimuth Distance (km) Brightness Sun altitude
Rises 18:35:26 0° 184° (S) 3,388 5.5 -27.7°
Reaches altitude 10° 18:37:57 10° 178° (S) 2,460 4.6 -28.1°
Enters shadow 18:39:22 18° 172° (S) 1,974 4.1 -28.4°
